#timestamp,LO_Frequency,Hit,StdDev 
1513350015.3,286046999.1,N
1513350035.2,286047001.2,N
1513350055.9,286047000.0,N
1513350075.7,286047000.5,N
1513350095.6,286047000.9,N
1513350115.4,286047001.1,N
1513350135.2,286046998.9,N
1513350155.1,286046999.3,N
1513350156.0,286046999.3,N
1513350175.8,286046999.5,N
1513350195.7,286046997.0,N
1513350215.5,286046996.8,N
1513350235.3,286046999.5,N
1513350255.2,286046999.3,N
1513350275.0,286046998.8,N
1513350275.9,286046998.8,N
1513350295.8,286046998.9,N
1513350315.6,286046999.0,N
1513350335.4,286046998.6,N
1513350355.3,286047000.9,N
1513350375.1,286047000.9,N
1513350395.8,286046998.3,N
1513350415.7,286047001.2,N
1513350435.5,286046998.1,N
1513350455.4,286047001.2,N
1513350475.2,286046998.1,N
1513350495.0,286046998.5,N
1513350495.9,286046998.5,N
1513350515.8,286047001.0,N
1513350535.6,286047001.2,N
1513350555.4,286046999.8,N
1513350575.3,286046998.2,N
1513350595.1,286046998.7,N
1513350615.9,286047001.0,N
1513350635.7,286046999.9,N
1513350655.5,286047000.7,N
1513350675.4,286047000.4,N
1513350695.2,286047000.1,N
1513350715.1,286047000.1,N
1513350716.0,286047000.1,N
1513350735.8,286047000.4,N
1513350755.6,286047000.3,N
1513350775.5,286046999.9,N
1513350795.3,286047001.0,N
1513350815.2,286047001.2,N
1513350835.9,286046999.7,N
1513350855.7,286047001.3,N
1513350875.6,286047001.6,N
1513350895.4,286047002.2,N
1513350915.3,286047000.3,N
1513350935.1,286047000.3,N
1513350936.0,286047000.3,N
1513350955.8,286047002.4,N
1513350975.7,286047002.1,N
1513350995.5,286047002.7,N
1513351015.4,286047002.3,N
1513351035.2,286046999.7,N
1513351055.0,286047002.3,N
1513351055.9,286047002.3,N
1513351075.8,286047002.1,N
1513351095.6,286047002.6,N
1513351115.5,286047000.2,N
1513351135.3,286047002.8,N
1513351155.1,286047002.8,N
1513351175.9,286047002.2,N
1513351195.7,286047002.0,N
1513351215.5,286047001.5,N
1513351235.4,286047001.5,N
1513351255.2,286046999.7,N
1513351275.1,286047000.2,N
1513351276.0,286047000.2,N
1513351295.8,286047001.0,N
1513351315.6,286047001.0,N
1513351335.5,286047000.3,N
1513351355.3,286047000.6,N
1513351375.1,286047002.3,N
1513351395.9,286047002.7,N
1513351415.7,286047000.4,N
1513351435.6,286047000.4,N
1513351455.4,286047000.1,N
1513351475.2,286047000.3,N
1513351495.1,286047001.6,N
1513351496.0,286047001.6,N
1513351515.8,286047000.5,N
1513351535.7,286047000.2,N
1513351555.5,286047002.2,N
1513351575.3,286047002.7,N
1513351595.2,286047002.3,N
1513351615.9,286047000.3,N
1513351635.7,286047000.7,N
1513351655.6,286047000.9,N
1513351675.4,286047000.0,N
1513351695.3,286047001.2,N
1513351715.1,286047000.5,N
1513351716.0,286047000.5,N
1513351735.8,286046999.8,N
1513351755.7,286047000.3,N
1513351775.5,286046999.8,N
1513351795.3,286047002.5,N
1513351815.2,286047000.5,N
1513351835.0,286047000.2,N
1513351835.9,286047000.2,N
1513351855.8,286047000.1,N
1513351875.6,286047000.6,N
1513351895.4,286046999.7,N
1513351915.3,286047002.4,N
1513351935.1,286047003.8,Y
1513351955.9,286047002.4,P
1513351975.7,286047000.2,N
1513351995.5,286047002.6,N
1513352015.4,286047002.7,N
1513352035.2,286046998.4,N
1513352055.0,286046998.5,N
1513352055.9,286046998.5,N
1513352075.8,286046998.6,N
1513352095.6,286047001.1,N
1513352115.5,286047000.8,N
1513352135.3,286047000.1,N
1513352155.1,286047001.2,N
1513352175.9,286047000.5,N
1513352195.7,286047000.8,N
1513352215.5,286046999.8,N
1513352235.4,286046999.9,N
1513352255.2,286047000.2,N
1513352275.1,286047000.5,N
1513352276.0,286047000.5,N
1513352295.8,286046998.5,N
1513352315.6,286047000.7,N
1513352335.5,286047002.3,N
1513352355.3,286047002.3,N
1513352375.2,286047002.8,N
1513352395.9,286046999.8,N
1513352415.7,286047001.1,N
1513352435.6,286047000.0,N
1513352455.4,286046999.9,N
1513352475.2,286047002.8,N
1513352495.1,286047002.4,N
1513352496.0,286047002.4,N
1513352515.8,286047000.0,N
1513352535.7,286046999.9,N
1513352555.5,286046999.8,N
1513352575.3,286047002.8,N
1513352595.2,286047001.7,N
1513352615.0,286047001.4,N
1513352615.9,286047001.4,N
1513352635.8,286047004.4,Y
1513352655.6,286047002.5,P
1513352675.4,286047001.5,N
1513352695.3,286047002.0,P
1513352715.1,286047001.7,N
1513352735.9,286047002.1,Y
1513352755.7,286047000.8,P
1513352775.5,286047000.9,N
1513352795.4,286046999.9,N
1513352815.2,286046998.3,N
1513352835.0,286046998.7,N
1513352835.9,286046998.7,N
1513352855.8,286047001.2,N
1513352875.6,286047002.2,N
1513352895.5,286047000.4,N
1513352915.3,286047002.7,N
1513352935.1,286046998.2,N
1513352955.9,286047000.7,N
1513352975.7,286047001.0,N
1513352995.5,286046998.4,N
1513353015.4,286046998.6,N
1513353035.2,286046998.9,N
1513353055.1,286046996.6,N
1513353056.0,286046996.6,N
1513353075.8,286046999.6,N
1513353095.6,286046996.6,N
1513353115.5,286046997.2,N
1513353135.3,286046996.5,N
1513353155.2,286046997.0,N
1513353175.9,286046997.9,N
1513353195.7,286046997.3,N
1513353215.6,286046995.3,N
1513353235.4,286046997.0,N
1513353255.2,286046996.7,N
1513353275.1,286046995.4,N
1513353276.0,286046995.4,N
1513353295.8,286046993.8,Y
1513353315.7,286046996.0,P
1513353335.5,286046996.4,N
1513353355.3,286046993.3,P
1513353375.2,286046993.5,Y
1513353395.0,286046998.6,P
1513353395.9,286046998.6,N
1513353415.8,286046998.2,N
1513353435.6,286046998.4,N
1513353455.4,286047000.6,N
1513353475.3,286046998.6,N
1513353495.1,286046999.3,N
1513353515.8,286047000.8,N
1513353535.7,286047001.2,N
1513353555.5,286046998.4,N
1513353575.4,286046999.2,N
1513353595.2,286046997.2,N
